Temp
38 39 39 40 40 41 44 46 47 46 46 46 45 44 44 43 42 41 41 42 41 40 40 38 36 36 36 35 35 35 34 33 33 33 33 32 31 31 31 30 30 30 30 30 30 30 29 29 29 29 29 29 29 28 27 26 27 27 26 25 26 25
38 38 38 38 39 39 41 44 45 45 45 45 45 44 44 42 41 40 39 39 40 39 38 36 36 35 35 34 34 34 34 33 33 33 32 32 31 31 31 31 30 30 30 30 30 29 29 29 28 28 28 28 29 28 27 26 27 26 26 25 25 26
37 37 38 38 38 38 39 42 44 45 45 44 45 43 42 41 40 39 39 38 38 37 36 35 35 34 34 33 34 35 34 34 34 33 33 31 31 31 31 31 31 30 30 30 30 30 29 28 28 28 28 28 27 27 27 26 26 26 24 25 24 24
36 36 35 35 36 36 37 37 40 43 44 44 44 43 42 41 40 40 39 38 38 37 36 35 35 34 34 34 34 34 34 33 33 32 31 31 31 31 31 31 30 30 30 30 29 29 29 29 28 27 28 28 28 26 27 26 25 25 23 24 23 23
36 36 36 36 36 37 37 36 39 41 42 43 43 42 42 42 41 41 40 40 39 37 36 35 35 34 34 34 34 33 32 32 31 31 31 31 30 30 31 31 30 30 30 29 29 29 28 28 28 28 28 28 28 27 26 25 25 24 23 23 23 23
35 34 34 35 35 35 36 37 37 38 41 42 42 42 42 41 41 40 40 39 39 37 35 35 35 34 34 34 34 33 32 32 31 31 31 31 30 30 29 29 30 30 30 30 29 29 29 29 28 28 29 29 29 28 27 25 24 24 23 23 22 22
34 35 35 35 35 36 36 36 37 37 38 40 41 42 42 41 41 40 40 39 38 37 36 35 35 34 34 34 33 33 32 31 31 31 31 30 30 30 30 30 31 31 31 31 30 30 30 30 29 29 30 29 29 28 27 25 24 23 23 23 23 24
35 35 35 35 36 36 36 36 37 37 37 39 41 41 41 41 40 40 39 39 38 36 35 35 35 35 34 34 33 33 32 31 31 31 31 32 32 31 31 31 31 32 32 32 31 31 31 31 31 31 30 29 28 28 27 25 24 23 22 22 22 22
34 35 35 36 36 36 36 36 36 37 37 37 38 40 40 40 39 39 39 39 38 37 36 36 35 35 35 34 34 33 32 32 32 32 33 33 33 32 32 32 32 32 32 32 31 31 31 31 31 31 30 28 28 28 26 24 22 22 21 21 21 21
35 35 35 35 35 35 36 36 37 37 37 37 37 38 39 39 39 39 39 38 38 37 37 36 36 35 35 35 33 33 32 32 33 33 34 33 33 33 33 32 32 32 32 32 31 32 31 31 30 30 29 29 28 28 26 24 23 22 21 20 20 20
35 35 35 35 35 35 35 35 36 36 36 37 36 36 38 38 38 38 38 38 38 38 37 37 36 36 35 34 33 32 32 33 33 33 33 33 33 33 33 33 32 31 31 31 31 31 31 30 30 30 29 29 28 28 26 24 22 23 22 21 20 19
36 36 35 35 35 35 35 35 35 36 36 36 36 36 36 37 38 38 38 38 38 37 37 37 36 35 34 33 33 33 34 34 33 33 33 32 33 33 33 32 32 32 31 30 30 30 30 30 30 30 32 31 28 27 25 24 23 22 22 21 20 19
36 35 35 35 35 36 36 36 36 36 36 36 35 35 35 36 37 37 37 37 38 37 35 34 35 34 33 34 34 33 33 33 33 32 32 31 31 31 31 31 31 31 31 31 30 29 29 29 29 31 34 34 32 28 25 24 23 22 21 20 19 19
36 36 36 36 36 36 36 36 36 35 36 36 35 35 34 36 37 37 37 37 37 36 35 34 34 33 34 33 32 32 32 32 31 31 31 30 30 30 30 30 30 31 31 30 30 29 29 29 31 33 34 35 34 30 25 24 22 21 21 20 19 19
38 38 37 37 37 36 36 36 35 35 35 35 34 33 33 35 36 37 37 37 37 36 35 34 33 33 32 32 32 32 31 31 31 30 29 29 30 29 28 30 30 30 30 29 29 28 29 29 32 34 35 35 35 34 28 22 21 20 20 20 19 19
38 38 38 38 37 37 36 36 36 35 35 34 32 33 33 33 34 36 36 36 36 35 34 33 32 32 32 32 32 31 31 30 30 30 30 29 28 28 28 28 28 28 28 29 29 28 28 28 31 34 35 35 36 35 31 21 21 20 20 20 19 19
38 37 36 36 35 34 35 34 35 34 33 33 33 33 33 33 33 33 34 34 35 35 33 32 32 31 32 31 31 31 30 30 29 29 29 29 29 28 28 28 27 27 27 26 27 28 27 27 31 34 35 36 36 36 33 21 20 20 20 20 19 19
37 37 37 36 36 36 37 36 36 35 35 34 34 33 33 32 32 33 33 33 34 33 33 32 31 31 31 31 30 30 30 29 29 29 29 28 29 28 28 28 27 27 26 26 25 25 25 27 31 33 34 36 36 37 31 22 20 19 18 18 19 19
38 38 37 36 37 37 37 37 36 36 34 33 33 32 32 32 32 32 33 34 34 32 32 32 32 31 31 31 30 29 29 29 29 29 29 28 29 28 27 27 27 27 26 25 24 24 25 25 28 32 33 35 36 35 28 22 20 19 18 18 18 18
35 36 37 36 36 36 36 36 36 35 33 33 33 32 32 32 33 34 34 34 33 33 33 33 32 31 30 30 29 29 29 30 30 29 28 28 28 28 27 27 26 25 25 25 24 24 24 24 26 31 33 34 36 34 27 22 20 20 19 18 19 18
36 36 36 37 35 35 36 35 35 34 33 33 33 33 33 33 34 34 34 34 34 33 32 32 32 31 30 30 30 30 29 29 29 29 27 27 28 27 27 25 25 24 23 23 23 24 23 22 24 29 31 33 35 34 28 23 20 20 19 18 18 18
34 34 35 35 35 35 35 35 35 33 33 34 34 33 33 34 34 35 35 35 34 33 32 32 31 31 31 30 30 30 30 30 28 27 27 26 27 27 25 24 24 23 23 21 19 19 21 20 19 22 30 32 34 35 29 22 21 20 20 19 18 17
35 34 34 34 35 35 35 36 35 34 34 34 33 33 34 34 35 34 34 34 33 31 31 31 31 31 31 31 31 31 29 29 29 28 26 25 24 23 22 21 21 21 21 19 18 16 17 17 17 18 27 30 32 34 33 23 22 23 22 19 18 17
32 32 32 34 36 36 36 35 34 34 33 32 32 33 34 33 33 33 32 32 31 31 30 30 31 32 32 31 30 29 29 28 28 27 25 24 23 21 21 20 19 19 19 18 16 15 15 16 19 16 22 28 30 32 35 29 24 24 21 19 17 17
32 32 33 33 34 35 35 35 33 32 32 32 33 32 32 32 32 32 32 31 31 30 30 31 31 31 31 30 30 29 28 26 25 24 23 22 21 21 21 20 19 18 18 17 17 15 15 14 15 22 19 24 28 30 32 34 31 30 23 19 19 19
32 32 32 32 33 34 35 35 32 32 31 32 32 31 31 31 31 31 31 30 30 30 30 30 30 30 30 29 28 28 27 24 24 22 22 22 21 20 20 20 18 17 16 17 18 18 17 16 14 17 23 22 25 28 30 31 33 34 26 21 21 21
31 31 30 31 31 33 33 34 33 31 31 30 30 30 30 29 29 30 30 29 29 29 29 28 28 28 28 27 27 26 26 24 22 22 20 19 20 19 19 19 17 17 17 18 18 20 20 17 14 13 17 23 24 26 27 29 30 31 33 29 25 23
31 30 29 28 28 29 30 30 32 31 30 27 27 27 27 27 27 27 27 26 26 26 26 26 25 26 26 25 26 27 27 25 22 22 20 18 19 19 19 18 16 16 16 17 18 19 19 13 11 12 10 16 20 22 25 27 28 28 29 29 28 30
30 29 28 26 24 25 25 24 24 25 24 23 23 24 25 26 26 25 23 24 23 21 23 25 24 23 22 22 23 23 24 23 22 21 19 18 18 17 17 17 17 16 16 16 17 18 15 15 11 10 7 7 9 12 15 18 20 24 26 24 24 26
29 28 27 25 23 23 23 22 20 19 19 19 20 20 23 24 24 24 22 21 20 20 21 23 19 21 22 21 22 22 20 19 20 20 20 18 18 17 17 16 16 17 17 17 17 15 13 15 14 9 7 6 7 8 9 11 12 13 14 17 19 21
26 25 24 21 20 21 20 18 16 15 15 16 15 20 22 21 19 18 17 16 17 17 16 18 18 19 19 17 14 15 14 16 16 18 17 15 12 17 18 17 17 16 12 13 14 13 14 15 15 12 17 14 16 12 9 8 10 11 13 18 22 21
23 22 20 18 18 19 18 15 14 13 13 14 14 17 21 19 18 17 14 14 14 11 12 12 11 9 12 13 12 13 10 17 25 18 15 12 20 25 27 24 17 11 10 13 14 14 16 17 14 24 26 26 25 25 25 22 21 20 18 20 24 23
20 20 18 17 17 16 13 9 7 7 8 8 12 14 16 17 17 14 12 12 11 12 10 8 8 8 7 7 8 7 10 8 11 24 26 25 24 25 26 28 28 28 25 18 12 15 25 25 26 27 28 28 28 29 29 28 28 27 27 27 24 20
21 20 17 16 15 13 10 7 5 4 5 6 8 12 14 14 16 15 12 10 8 12 10 8 9 8 8 5 5 7 8 10 10 11 20 24 25 26 27 27 28 28 28 29 26 19 14 22 26 28 28 28 29 28 29 29 29 29 29 29 29 21
19 18 17 15 12 8 7 5 4 3 4 4 7 10 13 13 14 13 10 10 11 10 11 9 9 8 8 6 7 4 6 6 7 10 9 11 20 22 23 25 26 27 28 28 28 29 28 26 26 27 28 28 28 28 28 28 29 29 30 29 25 22
17 15 13 9 7 5 5 4 2 2 1 2 4 10 12 12 12 12 11 10 10 10 9 9 8 7 6 5 4 2 4 4 3 1 4 4 7 8 13 19 22 22 23 24 25 25 25 25 25 26 26 26 26 26 27 27 26 29 29 28 23 22
13 11 9 7 5 4 3 2 1 0 0 1 3 9 10 10 9 9 8 8 8 8 8 6 7 5 4 3 2 2 2 2 2 4 -0 -0 1 3 3 -0 4 12 21 18 20 22 23 23 23 24 24 24 24 24 24 24 21 20 21 22 21 21
9 8 6 5 5 4 2 1 1 0 -1 -1 2 7 7 7 8 7 7 5 5 5 5 3 3 3 3 2 1 -1 1 1 2 2 -1 1 -0 -3 -4 -4 -6 -0 9 18 17 18 19 20 21 21 22 21 22 21 20 14 13 12 13 13 14 14
MSLP
1017.64 1017.88 1018.05 1018.35 1018.58 1018.49 1018.38 1018.58 1018.85 1019.16 1019.49 1019.78 1020.03 1020.47 1020.91 1021.35 1021.84 1022.23 1022.70 1022.88 1023.14 1023.59 1023.91 1024.26 1024.76 1025.07 1025.28 1025.66 1025.92 1026.21 1026.47 1026.83 1027.19 1027.40 1027.56 1027.94 1028.16 1028.31 1028.56 1028.83 1029.07 1029.26 1029.42 1029.47 1029.64 1029.92 1030.18 1030.47 1030.59 1030.69 1030.73 1030.76 1031.04 1031.44 1031.71 1032.07 1032.14 1032.23 1032.54 1032.95 1033.11 1033.49
1017.40 1017.58 1017.82 1018.11 1018.34 1018.52 1018.58 1018.66 1018.96 1019.22 1019.46 1019.76 1020.08 1020.52 1020.93 1021.49 1021.85 1022.22 1022.58 1022.93 1023.16 1023.41 1023.82 1024.21 1024.42 1024.83 1025.23 1025.54 1025.80 1026.14 1026.40 1026.73 1026.99 1027.30 1027.61 1027.80 1028.07 1028.30 1028.56 1028.78 1028.95 1029.11 1029.23 1029.42 1029.57 1029.88 1030.23 1030.45 1030.64 1030.59 1030.66 1030.83 1031.02 1031.31 1031.61 1031.97 1032.07 1032.23 1032.47 1032.95 1033.23 1033.45
1017.26 1017.53 1017.76 1018.03 1018.40 1018.66 1018.79 1018.67 1018.70 1018.99 1019.41 1019.66 1019.88 1020.26 1020.84 1021.23 1021.59 1021.97 1022.23 1022.67 1023.05 1023.32 1023.53 1023.99 1024.44 1024.76 1025.18 1025.56 1025.83 1026.02 1026.38 1026.73 1026.95 1027.16 1027.40 1027.83 1028.07 1028.28 1028.52 1028.69 1028.83 1028.97 1029.06 1029.26 1029.49 1029.73 1030.07 1030.33 1030.49 1030.57 1030.66 1030.83 1031.11 1031.38 1031.56 1031.90 1031.99 1032.14 1032.71 1032.95 1033.19 1033.47
1017.22 1017.55 1017.96 1018.26 1018.47 1018.70 1018.88 1019.03 1019.03 1019.03 1019.17 1019.41 1019.79 1020.17 1020.47 1020.88 1021.41 1021.67 1022.05 1022.47 1022.79 1023.11 1023.46 1023.79 1024.23 1024.68 1025.07 1025.40 1025.73 1025.97 1026.31 1026.59 1026.81 1027.09 1027.49 1027.69 1027.99 1028.19 1028.33 1028.54 1028.73 1028.88 1028.99 1029.18 1029.45 1029.76 1030.06 1030.26 1030.31 1030.49 1030.68 1030.88 1031.14 1031.45 1031.69 1031.80 1031.88 1032.18 1032.66 1032.97 1033.14 1033.42
1016.97 1017.29 1017.58 1017.88 1018.09 1018.29 1018.64 1018.93 1018.93 1018.88 1019.09 1019.35 1019.61 1019.90 1020.26 1020.49 1020.91 1021.43 1021.84 1022.20 1022.64 1023.02 1023.32 1023.70 1024.06 1024.42 1024.78 1025.11 1025.52 1025.81 1026.19 1026.49 1026.76 1027.06 1027.28 1027.57 1027.92 1028.23 1028.35 1028.47 1028.64 1028.80 1028.97 1029.18 1029.47 1029.80 1030.07 1030.21 1030.30 1030.52 1030.68 1030.90 1031.09 1031.33 1031.57 1031.69 1031.71 1031.97 1032.45 1032.83 1033.09 1033.28
1017.08 1017.49 1017.79 1018.11 1018.32 1018.46 1018.55 1018.70 1018.91 1018.97 1019.05 1019.17 1019.49 1019.72 1020.02 1020.49 1020.85 1021.23 1021.67 1022.02 1022.35 1022.73 1023.17 1023.47 1023.78 1024.11 1024.44 1024.78 1025.18 1025.56 1025.97 1026.31 1026.61 1026.97 1027.23 1027.52 1027.90 1028.16 1028.44 1028.61 1028.66 1028.81 1028.94 1029.14 1029.52 1029.78 1029.99 1030.19 1030.31 1030.54 1030.73 1030.90 1031.16 1031.28 1031.33 1031.52 1031.64 1031.94 1032.38 1032.68 1032.97 1033.21
1016.90 1017.02 1017.28 1017.43 1017.66 1017.93 1018.20 1018.35 1018.59 1018.82 1018.91 1019.11 1019.26 1019.49 1019.85 1020.23 1020.70 1021.11 1021.46 1021.76 1022.16 1022.61 1022.91 1023.17 1023.52 1023.76 1024.07 1024.42 1024.94 1025.35 1025.80 1026.16 1026.52 1026.90 1027.14 1027.49 1027.88 1028.16 1028.42 1028.64 1028.73 1028.73 1028.81 1028.99 1029.28 1029.57 1029.81 1029.94 1030.18 1030.44 1030.73 1031.04 1031.23 1031.23 1031.31 1031.42 1031.54 1031.85 1032.33 1032.64 1032.81 1033.02
1016.46 1016.72 1016.90 1017.14 1017.28 1017.41 1017.72 1018.02 1018.26 1018.52 1018.72 1018.82 1018.97 1019.28 1019.66 1020.02 1020.52 1020.88 1021.23 1021.61 1021.88 1022.26 1022.61 1022.90 1023.23 1023.41 1023.72 1024.18 1024.69 1025.14 1025.59 1025.99 1026.35 1026.71 1027.07 1027.35 1027.66 1028.07 1028.30 1028.38 1028.56 1028.49 1028.57 1028.85 1029.14 1029.33 1029.56 1029.80 1030.04 1030.30 1030.61 1030.94 1031.19 1031.35 1031.47 1031.54 1031.56 1031.81 1032.21 1032.56 1032.76 1032.90
1016.03 1016.16 1016.47 1016.55 1016.88 1017.14 1017.32 1017.58 1017.90 1018.16 1018.40 1018.64 1018.85 1019.05 1019.40 1019.79 1020.29 1020.72 1021.03 1021.34 1021.59 1021.99 1022.23 1022.47 1022.76 1023.11 1023.59 1024.02 1024.45 1025.06 1025.54 1025.83 1026.16 1026.52 1026.80 1027.16 1027.45 1027.78 1028.04 1028.30 1028.38 1028.45 1028.54 1028.78 1029.07 1029.23 1029.35 1029.61 1029.94 1030.30 1030.66 1030.92 1031.09 1031.23 1031.42 1031.59 1031.69 1031.90 1032.26 1032.49 1032.61 1032.80
1015.64 1015.90 1016.03 1016.38 1016.49 1016.85 1017.20 1017.32 1017.47 1017.72 1017.96 1018.23 1018.70 1018.99 1019.32 1019.70 1020.02 1020.41 1020.78 1021.14 1021.40 1021.53 1021.72 1022.08 1022.64 1023.08 1023.46 1023.93 1024.44 1024.85 1025.26 1025.64 1025.97 1026.28 1026.59 1026.97 1027.23 1027.45 1027.68 1027.88 1028.06 1028.28 1028.52 1028.71 1028.97 1029.14 1029.30 1029.54 1029.88 1030.21 1030.56 1030.78 1030.92 1031.09 1031.31 1031.45 1031.57 1031.83 1032.21 1032.49 1032.66 1032.73
1014.72 1015.22 1015.66 1015.88 1016.28 1016.43 1016.67 1017.14 1017.38 1017.59 1017.85 1018.05 1018.41 1018.79 1019.02 1019.41 1019.85 1020.22 1020.52 1020.85 1021.02 1021.17 1021.66 1022.22 1022.67 1022.99 1023.35 1023.78 1024.23 1024.68 1025.02 1025.35 1025.71 1026.11 1026.47 1026.83 1027.06 1027.28 1027.54 1027.80 1027.97 1028.21 1028.49 1028.76 1028.94 1029.09 1029.30 1029.47 1029.69 1029.97 1030.30 1030.56 1030.80 1030.95 1031.11 1031.31 1031.45 1031.76 1032.11 1032.42 1032.56 1032.66
1014.32 1014.66 1015.14 1015.59 1015.67 1015.90 1016.26 1016.46 1016.67 1016.88 1017.11 1017.58 1018.09 1018.52 1018.88 1019.38 1019.64 1019.93 1020.32 1020.58 1020.82 1021.32 1021.79 1022.22 1022.64 1022.96 1023.32 1023.67 1023.93 1024.28 1024.71 1025.09 1025.52 1025.92 1026.31 1026.66 1026.92 1027.19 1027.49 1027.76 1027.95 1028.16 1028.30 1028.57 1028.88 1029.09 1029.30 1029.42 1029.54 1029.80 1030.04 1030.19 1030.35 1030.69 1031.02 1031.23 1031.42 1031.76 1032.07 1032.26 1032.42 1032.54
1013.99 1014.43 1014.67 1014.73 1014.99 1015.11 1015.35 1015.61 1016.03 1016.61 1016.99 1017.23 1017.66 1018.14 1018.67 1019.11 1019.47 1019.78 1020.08 1020.43 1020.90 1021.34 1021.79 1022.23 1022.67 1023.11 1023.41 1023.58 1023.90 1024.30 1024.59 1024.97 1025.40 1025.81 1026.21 1026.59 1026.88 1027.11 1027.42 1027.68 1027.90 1028.06 1028.26 1028.44 1028.68 1028.94 1029.14 1029.26 1029.40 1029.64 1029.83 1029.99 1030.23 1030.64 1030.85 1030.92 1031.26 1031.76 1032.06 1032.18 1032.23 1032.19
1013.29 1013.59 1013.61 1013.70 1014.16 1014.82 1015.22 1015.52 1015.90 1016.41 1016.66 1017.03 1017.59 1018.09 1018.64 1018.99 1019.20 1019.52 1019.88 1020.28 1020.78 1021.22 1021.67 1022.11 1022.66 1023.16 1023.49 1023.79 1023.97 1024.23 1024.61 1025.02 1025.40 1025.71 1026.07 1026.47 1026.80 1027.07 1027.42 1027.61 1027.71 1027.92 1028.14 1028.35 1028.57 1028.78 1028.92 1029.06 1029.21 1029.44 1029.56 1029.69 1029.94 1030.42 1030.68 1030.81 1031.14 1031.64 1031.92 1032.06 1032.14 1032.09
1012.02 1012.17 1012.58 1013.35 1013.72 1013.96 1014.38 1015.08 1015.73 1015.88 1016.26 1017.03 1017.61 1018.28 1018.70 1018.79 1018.96 1019.29 1019.66 1020.02 1020.43 1020.93 1021.47 1021.99 1022.53 1023.08 1023.53 1023.88 1024.18 1024.45 1024.78 1025.06 1025.33 1025.64 1026.02 1026.28 1026.59 1027.09 1027.35 1027.40 1027.66 1027.83 1028.02 1028.19 1028.35 1028.57 1028.78 1028.92 1029.02 1029.16 1029.28 1029.42 1029.64 1029.99 1030.45 1030.76 1031.02 1031.42 1031.66 1031.81 1031.92 1031.95
1011.70 1011.88 1012.05 1012.43 1012.96 1013.59 1014.28 1014.70 1015.09 1015.72 1016.28 1016.90 1017.58 1017.96 1018.47 1018.79 1019.02 1019.17 1019.41 1019.78 1020.09 1020.49 1021.09 1021.67 1022.22 1022.79 1023.29 1023.78 1024.16 1024.44 1024.66 1024.94 1025.11 1025.40 1025.83 1026.33 1026.73 1026.92 1027.16 1027.38 1027.52 1027.71 1027.88 1027.99 1028.16 1028.35 1028.57 1028.71 1028.83 1028.95 1029.06 1029.16 1029.33 1029.56 1029.95 1030.52 1030.80 1031.09 1031.33 1031.52 1031.66 1031.71
1010.97 1011.52 1012.02 1012.41 1012.99 1013.64 1014.17 1014.72 1015.09 1015.70 1016.22 1016.61 1017.14 1017.55 1018.03 1018.47 1018.85 1019.23 1019.47 1019.78 1020.09 1020.52 1021.02 1021.47 1021.93 1022.47 1023.03 1023.52 1023.91 1024.26 1024.52 1024.80 1025.21 1025.56 1025.80 1026.09 1026.35 1026.64 1026.83 1027.04 1027.31 1027.49 1027.69 1027.92 1028.09 1028.28 1028.44 1028.52 1028.69 1028.76 1028.80 1028.90 1029.02 1029.18 1029.47 1030.26 1030.69 1030.99 1031.16 1031.30 1031.40 1031.42
1010.55 1011.09 1011.55 1012.28 1012.85 1013.40 1013.76 1014.16 1014.73 1015.23 1015.70 1016.34 1016.72 1017.28 1017.67 1018.16 1018.64 1019.02 1019.38 1019.70 1020.03 1020.47 1020.96 1021.38 1021.82 1022.28 1022.73 1023.23 1023.73 1024.16 1024.49 1024.85 1025.09 1025.35 1025.73 1026.09 1026.38 1026.68 1026.94 1027.11 1027.26 1027.38 1027.52 1027.73 1028.06 1028.23 1028.28 1028.38 1028.54 1028.57 1028.56 1028.61 1028.73 1028.88 1029.23 1029.95 1030.40 1030.66 1030.88 1031.06 1031.07 1031.11
1010.17 1010.66 1011.41 1012.08 1012.52 1013.03 1013.53 1014.09 1014.66 1015.14 1015.88 1016.47 1016.85 1017.29 1017.76 1018.16 1018.52 1018.78 1019.05 1019.40 1019.88 1020.35 1020.78 1021.14 1021.52 1021.97 1022.47 1023.02 1023.53 1023.99 1024.42 1024.78 1025.09 1025.44 1025.76 1026.04 1026.16 1026.38 1026.57 1026.69 1026.78 1026.97 1027.31 1027.61 1027.88 1028.02 1027.95 1028.11 1028.28 1028.30 1028.31 1028.38 1028.44 1028.66 1028.99 1029.61 1030.09 1030.40 1030.59 1030.57 1030.68 1030.76
1010.49 1010.91 1011.20 1011.93 1012.49 1012.85 1013.38 1013.91 1014.41 1015.02 1015.72 1016.28 1016.79 1017.26 1017.66 1017.96 1018.09 1018.38 1018.79 1019.23 1019.64 1020.14 1020.58 1020.93 1021.34 1021.79 1022.28 1022.79 1023.23 1023.66 1024.09 1024.54 1024.97 1025.28 1025.54 1025.66 1025.78 1025.97 1026.11 1026.42 1026.73 1027.06 1027.21 1027.35 1027.54 1027.59 1027.66 1027.66 1028.02 1028.09 1028.07 1028.11 1028.14 1028.23 1028.61 1029.21 1029.69 1029.92 1030.09 1030.19 1030.35 1030.44
1010.16 1010.70 1011.26 1011.79 1012.43 1013.11 1013.43 1013.82 1014.28 1014.84 1015.43 1015.93 1016.47 1016.96 1017.34 1017.52 1017.72 1018.11 1018.58 1019.02 1019.53 1020.16 1020.67 1021.09 1021.40 1021.66 1022.09 1022.53 1022.93 1023.38 1023.79 1024.18 1024.54 1024.92 1025.44 1025.66 1025.78 1025.88 1026.18 1026.54 1026.73 1026.94 1027.21 1027.31 1027.33 1027.56 1027.80 1027.78 1027.99 1028.04 1027.97 1027.94 1027.90 1027.99 1028.38 1028.95 1029.40 1029.59 1029.64 1029.83 1029.88 1029.90
1010.67 1011.02 1011.23 1011.73 1012.29 1013.03 1013.40 1013.76 1014.17 1014.70 1015.28 1015.85 1016.28 1016.70 1016.90 1017.20 1017.59 1017.97 1018.49 1019.05 1019.61 1020.09 1020.53 1020.91 1021.26 1021.58 1021.93 1022.29 1022.76 1023.23 1023.59 1023.99 1024.52 1024.85 1025.26 1025.59 1025.78 1025.94 1026.19 1026.52 1026.69 1026.80 1026.92 1027.30 1027.61 1027.71 1027.73 1027.85 1027.92 1028.07 1027.88 1027.78 1027.73 1027.73 1028.07 1028.68 1029.09 1028.99 1028.85 1029.23 1029.33 1029.40
1010.78 1011.08 1011.59 1012.11 1012.70 1013.17 1013.52 1013.85 1014.28 1014.82 1015.29 1015.76 1016.17 1016.34 1016.76 1017.17 1017.59 1018.08 1018.59 1018.99 1019.49 1020.02 1020.43 1020.82 1021.09 1021.40 1021.76 1022.09 1022.47 1022.93 1023.43 1023.82 1024.18 1024.66 1025.06 1025.38 1025.76 1026.02 1026.30 1026.52 1026.76 1026.92 1026.95 1027.26 1027.54 1027.73 1027.80 1027.81 1027.85 1027.94 1027.92 1027.76 1027.66 1027.56 1027.61 1028.11 1028.18 1027.97 1028.28 1028.59 1028.90 1028.99
1011.58 1011.93 1012.38 1012.72 1012.99 1013.29 1013.64 1013.96 1014.40 1014.96 1015.43 1015.84 1016.05 1016.46 1016.84 1017.17 1017.64 1018.08 1018.55 1018.97 1019.43 1019.85 1020.28 1020.58 1020.90 1021.22 1021.52 1021.91 1022.32 1022.73 1023.11 1023.52 1023.88 1024.28 1024.69 1025.19 1025.64 1025.92 1026.11 1026.44 1026.76 1026.90 1026.92 1027.14 1027.38 1027.49 1027.47 1027.66 1027.71 1027.76 1027.81 1027.68 1027.54 1027.38 1027.09 1027.23 1027.31 1027.54 1028.09 1028.40 1028.45 1028.47
1012.29 1012.64 1012.91 1013.26 1013.35 1013.55 1013.79 1014.02 1014.52 1015.05 1015.49 1015.67 1016.05 1016.43 1016.73 1017.11 1017.52 1017.96 1018.38 1018.84 1019.22 1019.59 1019.91 1020.23 1020.53 1020.88 1021.23 1021.64 1021.97 1022.35 1022.82 1023.46 1023.85 1024.26 1024.68 1025.02 1025.40 1025.68 1025.92 1026.14 1026.44 1026.68 1026.71 1026.88 1027.02 1027.11 1027.19 1027.28 1027.42 1027.33 1027.49 1027.54 1027.38 1027.16 1026.95 1026.69 1026.81 1027.35 1027.83 1028.07 1027.85 1027.45
1013.03 1013.16 1013.43 1013.55 1013.66 1013.78 1013.93 1013.99 1014.52 1015.05 1015.28 1015.67 1016.11 1016.43 1016.79 1017.08 1017.47 1017.88 1018.32 1018.72 1019.05 1019.49 1019.85 1020.16 1020.52 1020.84 1021.20 1021.58 1022.02 1022.38 1022.73 1023.34 1023.76 1024.19 1024.56 1024.85 1025.14 1025.47 1025.69 1025.85 1026.18 1026.52 1026.54 1026.40 1026.21 1026.28 1026.42 1026.68 1027.04 1027.19 1027.18 1027.31 1027.33 1027.19 1027.06 1026.92 1026.78 1026.76 1027.06 1027.45 1027.23 1026.94
1012.79 1013.52 1013.85 1014.09 1014.11 1014.17 1014.23 1014.26 1014.40 1015.08 1015.35 1015.97 1016.23 1016.47 1016.78 1017.22 1017.61 1017.96 1018.32 1018.70 1019.08 1019.41 1019.82 1020.22 1020.53 1020.85 1021.16 1021.53 1021.85 1022.26 1022.66 1023.17 1023.67 1024.04 1024.57 1024.88 1025.07 1025.21 1025.28 1025.35 1025.83 1025.99 1025.85 1025.95 1025.81 1025.42 1025.54 1026.07 1026.64 1026.94 1027.18 1027.19 1027.18 1027.14 1027.11 1027.04 1026.90 1026.69 1026.54 1026.54 1026.40 1026.56
1014.03 1014.17 1014.46 1014.90 1015.02 1014.93 1014.97 1015.09 1015.02 1015.02 1015.76 1016.28 1016.43 1016.72 1016.99 1017.34 1017.64 1017.96 1018.26 1018.73 1019.14 1019.47 1019.91 1020.23 1020.66 1020.96 1021.23 1021.53 1021.84 1021.91 1022.22 1022.58 1023.32 1023.53 1024.23 1024.78 1024.83 1024.97 1025.02 1025.07 1025.47 1025.68 1025.80 1025.78 1025.47 1025.28 1025.33 1025.78 1026.07 1026.49 1026.95 1027.11 1027.07 1026.99 1026.83 1026.69 1026.59 1026.52 1026.52 1026.38 1025.94 1025.68
1014.34 1014.70 1014.93 1015.23 1015.85 1015.88 1015.90 1015.91 1016.14 1016.26 1016.35 1016.43 1016.90 1017.16 1017.35 1017.52 1017.76 1018.16 1018.64 1018.96 1019.38 1019.79 1020.05 1020.20 1020.61 1021.03 1021.40 1021.64 1021.91 1022.09 1022.28 1022.59 1023.08 1023.41 1023.84 1024.33 1024.54 1024.71 1024.88 1024.95 1025.18 1025.38 1025.59 1025.59 1025.30 1025.26 1025.45 1025.61 1025.81 1026.19 1026.68 1027.04 1027.14 1027.09 1026.99 1026.94 1026.66 1026.44 1026.38 1026.26 1025.92 1025.78
1014.03 1014.70 1015.09 1015.61 1016.32 1016.43 1016.52 1016.72 1017.08 1017.47 1017.47 1017.64 1017.72 1017.70 1017.72 1017.76 1017.97 1018.09 1018.58 1019.02 1019.47 1019.78 1020.09 1020.17 1020.53 1020.84 1021.26 1021.64 1021.90 1022.14 1022.49 1022.79 1023.03 1023.26 1023.35 1023.73 1024.07 1024.40 1024.68 1024.94 1025.04 1025.02 1024.99 1025.07 1025.09 1025.33 1025.47 1025.44 1025.61 1026.02 1026.28 1026.56 1026.78 1026.88 1026.97 1026.94 1026.88 1026.83 1026.69 1026.35 1026.04 1025.81
1014.34 1015.14 1015.41 1016.34 1017.08 1017.03 1017.22 1017.64 1018.22 1018.53 1018.38 1018.53 1018.38 1017.90 1017.61 1017.93 1018.40 1018.70 1019.16 1019.82 1020.11 1020.43 1021.02 1021.14 1021.40 1021.64 1021.88 1022.26 1022.70 1022.97 1023.14 1023.22 1023.38 1023.43 1023.64 1023.82 1023.99 1024.07 1024.09 1024.35 1024.54 1024.69 1024.92 1025.02 1025.09 1025.26 1025.26 1025.09 1025.23 1025.42 1025.56 1025.66 1025.83 1026.04 1026.33 1026.52 1026.52 1026.42 1026.30 1025.94 1025.61 1025.54
1014.85 1015.32 1016.08 1016.99 1017.43 1017.52 1017.78 1018.35 1018.96 1019.38 1019.49 1019.16 1018.79 1018.28 1017.66 1018.16 1018.72 1019.05 1019.66 1020.32 1020.52 1020.90 1021.16 1021.43 1021.76 1022.03 1022.23 1022.47 1022.73 1023.03 1023.32 1023.61 1023.58 1023.72 1023.78 1023.84 1024.06 1024.02 1024.06 1024.18 1024.30 1024.52 1024.76 1024.81 1024.90 1025.06 1024.90 1024.57 1024.71 1024.88 1024.81 1024.81 1024.85 1024.88 1024.94 1025.11 1025.31 1025.44 1025.54 1025.49 1025.33 1025.28
1015.66 1015.96 1016.58 1017.47 1017.97 1018.32 1018.85 1019.16 1019.72 1019.72 1019.97 1019.85 1019.43 1018.79 1018.49 1018.61 1018.88 1019.47 1020.05 1020.40 1020.67 1021.09 1021.32 1021.58 1021.82 1022.23 1022.46 1022.73 1022.90 1023.09 1023.08 1023.28 1023.66 1023.66 1023.64 1023.76 1023.88 1023.93 1023.93 1023.88 1023.90 1023.99 1024.21 1024.47 1024.61 1024.80 1024.68 1024.54 1024.47 1024.44 1024.40 1024.31 1024.26 1024.16 1024.16 1024.16 1024.19 1024.31 1024.42 1024.49 1024.66 1024.90
1015.52 1015.96 1017.14 1018.32 1018.66 1019.20 1019.67 1019.73 1020.52 1020.78 1020.82 1020.55 1020.03 1019.52 1019.20 1019.16 1019.05 1019.38 1020.11 1020.64 1021.11 1021.38 1021.55 1021.78 1021.97 1022.23 1022.34 1022.84 1023.17 1023.23 1023.23 1023.23 1023.16 1023.53 1023.84 1023.85 1023.82 1023.82 1023.78 1023.82 1023.85 1023.85 1023.84 1023.82 1023.93 1024.19 1024.49 1024.38 1024.18 1024.02 1023.93 1023.91 1023.85 1023.82 1023.78 1023.72 1023.67 1023.66 1023.67 1023.70 1023.70 1023.96
1017.28 1018.05 1018.61 1019.03 1019.55 1019.70 1019.99 1020.08 1021.08 1021.59 1021.28 1021.03 1020.55 1019.78 1019.38 1019.53 1019.59 1019.96 1020.55 1020.99 1021.28 1021.58 1021.82 1021.97 1022.11 1022.35 1022.52 1022.66 1022.96 1023.26 1023.49 1023.28 1023.29 1023.05 1023.08 1023.91 1024.23 1024.14 1023.99 1023.97 1023.88 1023.82 1023.72 1023.72 1023.67 1023.64 1023.61 1023.72 1023.78 1023.73 1023.67 1023.59 1023.52 1023.46 1023.43 1023.35 1023.28 1023.20 1023.16 1023.20 1023.34 1023.35
1018.23 1018.84 1019.38 1019.84 1019.79 1019.90 1020.03 1020.46 1021.55 1021.79 1021.76 1021.49 1021.02 1020.26 1019.90 1020.09 1020.38 1020.59 1020.73 1020.97 1021.26 1021.43 1021.73 1021.97 1022.20 1022.35 1022.66 1022.99 1023.20 1023.32 1023.43 1023.67 1023.85 1023.96 1024.23 1023.82 1023.64 1024.07 1024.31 1024.33 1024.35 1024.33 1024.23 1024.07 1023.96 1023.91 1023.90 1023.88 1023.82 1023.78 1023.73 1023.64 1023.55 1023.41 1023.28 1023.09 1023.03 1022.93 1022.84 1022.91 1023.09 1023.17
1018.79 1019.46 1020.14 1020.08 1020.08 1020.17 1020.40 1021.17 1022.08 1022.34 1022.20 1021.84 1021.40 1020.70 1020.61 1020.82 1021.05 1021.41 1021.61 1021.66 1021.64 1021.70 1021.99 1022.32 1022.53 1022.70 1022.96 1023.23 1023.32 1023.52 1023.70 1023.96 1024.38 1024.56 1024.45 1024.42 1024.23 1024.04 1024.06 1024.45 1024.80 1024.83 1024.66 1024.56 1024.52 1024.44 1024.35 1024.23 1024.16 1024.09 1024.02 1023.93 1023.82 1023.72 1023.58 1023.35 1023.32 1023.41 1023.32 1023.17 1023.22 1023.28
1019.55 1020.26 1020.70 1020.58 1020.70 1020.88 1021.05 1021.84 1022.53 1022.59 1022.43 1022.11 1021.59 1020.90 1020.96 1021.17 1021.34 1021.53 1021.84 1022.08 1022.16 1022.26 1022.53 1022.70 1022.88 1023.05 1023.08 1023.22 1023.58 1023.96 1024.09 1024.38 1024.45 1024.45 1024.68 1024.95 1025.16 1025.09 1025.07 1025.02 1025.26 1025.47 1025.42 1025.04 1025.11 1025.09 1024.95 1024.76 1024.61 1024.49 1024.38 1024.33 1024.23 1024.21 1024.09 1024.38 1024.57 1024.76 1024.73 1024.81 1024.64 1024.56
Wind_Speed
10 11 11 9 8 8 10 11 11 10 10 11 12 14 13 12 9 8 7 9 9 9 11 11 9 7 8 7 8 8 9 9 8 8 8 7 7 8 8 8 7 7 7 7 7 7 7 5 6 6 6 7 8 6 7 5 6 7 7 5 6 5
10 11 12 12 12 11 9 10 9 11 10 11 10 10 10 10 10 10 10 9 9 10 9 9 9 9 8 9 10 9 9 9 10 9 9 9 7 7 8 8 8 8 8 7 8 7 6 6 5 6 7 6 7 7 7 6 6 7 7 5 4 5
9 9 9 9 7 6 7 9 12 11 10 11 11 13 12 12 12 11 11 10 9 11 12 11 9 10 8 8 8 9 9 8 8 8 8 7 7 8 9 9 9 8 8 8 8 8 8 7 7 5 6 7 7 6 7 6 6 7 5 6 5 4
8 7 6 6 7 8 9 7 7 10 11 11 11 11 12 13 11 11 11 10 10 12 11 11 9 9 9 10 10 9 9 9 9 8 8 9 8 8 9 9 8 7 8 8 8 7 7 7 7 6 6 7 7 6 5 7 7 7 5 5 6 5
9 10 11 11 12 11 11 9 10 11 10 10 11 12 12 12 13 11 11 11 11 11 11 11 10 10 11 12 10 10 9 9 8 7 10 9 8 7 7 8 8 8 8 7 7 7 6 7 7 6 6 7 8 8 6 6 7 8 7 6 6 6
7 7 9 9 9 10 11 11 10 9 10 11 10 13 12 11 11 11 11 11 12 12 11 12 11 12 12 13 11 11 10 9 8 8 8 8 7 8 6 6 7 8 8 8 7 7 7 7 7 6 6 7 8 8 8 7 7 6 6 7 7 6
10 11 12 12 12 11 11 12 11 11 11 10 12 11 11 11 10 11 11 12 13 12 12 13 12 13 13 13 11 11 10 10 9 8 9 8 8 7 7 7 6 8 9 9 10 9 8 8 8 8 7 6 6 7 7 7 7 6 6 6 7 7
10 10 11 10 11 12 12 12 12 11 11 12 10 11 11 11 10 11 12 12 13 13 13 13 13 14 14 13 11 12 11 10 9 9 8 8 10 8 7 9 8 8 9 8 8 8 8 7 7 8 8 7 6 6 6 6 6 6 6 5 6 6
13 12 12 12 11 11 11 12 12 12 12 12 11 10 11 11 11 11 12 12 13 12 14 14 14 13 12 12 11 10 10 10 10 10 10 9 10 10 10 9 9 7 8 8 8 8 8 8 7 7 7 7 7 7 7 6 5 5 5 5 6 5
11 12 13 12 12 11 10 11 12 12 13 13 11 10 10 9 12 12 12 12 13 13 14 13 11 11 11 10 10 10 10 10 10 10 9 9 10 11 10 11 10 8 7 7 7 7 6 7 7 6 6 7 7 7 7 7 7 6 5 4 5 5
14 13 13 13 11 13 13 11 11 10 10 10 11 10 12 11 11 12 12 12 14 13 11 9 9 9 10 11 11 11 11 11 10 10 9 9 9 8 8 8 8 9 8 6 7 7 6 7 7 7 8 8 8 7 8 7 7 7 6 5 5 5
11 13 12 12 15 14 13 13 13 14 14 12 11 11 10 10 12 12 12 12 12 9 8 9 9 10 10 11 12 12 11 11 11 11 10 10 9 8 8 8 7 8 9 9 7 6 6 6 6 7 12 10 8 8 7 6 7 7 6 6 6 6
9 10 13 15 16 17 16 14 13 11 12 12 12 12 10 10 11 11 11 12 9 8 8 8 9 8 10 11 10 9 11 11 10 9 9 9 9 9 8 8 9 8 8 8 8 9 7 6 6 11 14 14 13 8 7 8 7 6 6 6 7 8
13 14 17 18 16 14 13 13 11 11 12 10 10 9 9 10 11 12 11 10 9 9 9 9 8 9 9 9 9 9 9 8 9 9 9 9 9 8 7 8 9 8 8 7 7 8 8 7 8 14 15 15 15 11 8 6 6 6 7 7 8 7
17 18 15 11 14 15 14 11 11 13 11 9 8 8 9 11 11 11 11 10 11 10 9 9 9 9 8 8 7 7 7 9 9 9 9 11 8 6 8 10 9 9 8 8 9 9 8 7 11 15 16 15 16 16 11 6 6 7 7 8 8 8
10 12 13 13 11 10 9 10 11 9 8 9 9 11 10 10 10 11 11 11 11 11 10 10 10 9 9 7 7 7 9 9 11 9 7 6 7 8 8 7 9 8 8 9 9 8 7 8 10 15 16 16 17 17 13 6 7 7 8 8 8 8
10 8 9 9 9 9 10 9 9 9 9 10 11 11 12 11 10 9 9 10 9 9 8 10 10 9 9 9 9 9 9 9 8 8 8 9 9 10 10 10 9 9 8 7 7 7 8 8 12 15 17 17 18 18 13 6 6 6 7 8 8 8
10 10 9 8 10 10 11 12 10 11 11 10 11 11 11 10 10 10 9 9 9 9 9 10 9 9 9 9 9 9 9 9 10 10 8 7 7 5 5 6 6 8 9 8 7 7 8 8 13 16 17 18 18 18 9 7 8 8 7 8 9 8
10 10 7 8 10 11 11 10 10 10 9 9 9 9 9 9 10 10 11 10 9 9 9 10 11 10 9 9 9 9 9 10 9 8 6 8 8 8 9 9 9 8 8 8 8 9 10 8 12 17 18 18 19 14 7 7 7 7 8 10 9 8
4 6 9 9 9 9 9 10 11 10 10 10 9 10 10 11 12 11 10 10 8 9 10 10 10 10 10 9 11 11 10 8 6 7 7 10 10 10 10 8 7 5 7 9 10 12 12 11 10 16 17 18 19 14 9 7 8 9 9 9 8 7
8 8 8 10 9 8 9 11 12 11 11 10 10 10 11 12 11 10 10 9 8 8 8 8 9 9 10 10 11 10 10 10 9 6 6 6 6 7 5 5 6 7 6 8 10 8 9 9 7 14 16 17 18 14 7 7 8 9 10 8 9 8
7 7 9 9 9 9 11 11 11 10 10 9 9 10 11 10 9 8 7 7 8 8 8 8 9 9 10 11 9 8 9 7 6 7 7 7 6 6 5 5 6 8 8 6 6 7 8 8 7 7 15 16 17 18 9 7 8 11 12 9 10 9
6 7 6 6 8 9 9 10 10 9 8 9 9 11 8 7 7 8 8 7 7 7 8 7 9 10 9 9 9 8 7 7 8 7 8 8 6 6 6 6 6 7 7 5 6 6 7 7 8 8 13 15 16 18 16 9 12 12 10 9 9 9
7 7 6 6 9 9 9 9 9 8 8 8 8 6 6 7 7 7 6 7 8 8 8 9 8 8 9 8 8 9 9 7 8 8 8 6 6 8 7 5 5 6 7 6 6 7 8 7 9 8 11 15 17 18 21 12 12 11 8 8 9 9
7 7 7 6 7 7 7 9 9 8 7 8 6 6 7 7 8 8 8 8 8 9 10 9 10 9 8 8 9 9 9 7 7 6 7 8 7 8 8 8 8 7 8 7 7 7 8 8 8 14 11 14 18 20 20 21 13 10 8 9 12 13
8 8 6 6 6 6 7 10 9 8 8 7 5 6 6 7 7 8 8 8 7 7 7 8 8 7 6 7 7 8 8 8 7 7 7 7 8 7 8 8 7 7 8 10 10 9 9 8 7 9 13 11 17 18 19 19 20 19 10 9 12 11
10 8 7 4 5 5 6 6 9 8 7 4 5 6 7 6 6 7 6 7 7 7 6 6 6 7 7 7 8 8 7 7 7 7 6 7 7 7 8 8 7 9 10 9 10 10 8 5 6 6 8 13 14 16 17 18 19 19 20 12 11 10
8 8 8 6 4 5 4 4 5 8 4 4 5 5 6 7 7 7 7 6 6 6 6 6 5 5 6 7 7 8 8 9 9 8 7 7 7 8 8 8 7 8 8 9 10 10 7 3 4 5 4 6 9 10 15 18 18 19 18 18 15 17
8 8 8 7 4 5 6 6 6 4 4 4 4 5 6 6 6 6 5 6 5 5 6 7 6 6 5 5 5 5 6 6 7 7 7 7 8 8 8 7 7 7 7 8 10 8 6 6 4 4 3 4 5 6 7 8 10 14 16 13 11 12
10 9 9 8 5 6 7 7 7 5 5 4 4 4 5 6 6 7 6 6 5 6 6 6 7 8 6 6 6 6 5 4 5 7 8 9 8 8 7 6 7 8 9 8 7 6 6 7 5 4 5 6 6 6 6 7 7 7 7 9 10 10
9 8 10 7 4 7 8 8 7 7 7 5 3 4 6 5 4 4 3 3 2 2 2 2 2 1 0 0 0 1 1 2 4 4 3 0 3 6 7 6 7 6 4 6 6 6 8 7 6 6 8 8 10 9 7 7 8 8 8 11 15 11
9 9 9 6 5 7 8 7 7 7 7 6 5 3 6 6 6 6 5 5 4 3 3 3 3 3 3 3 2 0 1 4 3 2 3 4 2 5 8 7 6 4 5 6 6 6 8 9 4 4 8 11 13 15 16 14 13 13 11 12 17 12
8 9 9 6 6 8 8 10 8 10 8 8 6 5 6 6 7 6 5 5 4 4 4 3 4 4 4 3 4 3 2 2 2 3 1 4 5 5 5 7 9 9 8 7 5 5 11 12 12 13 13 13 14 15 15 16 16 17 17 18 11 8
7 9 8 6 7 8 9 12 9 8 8 6 5 4 6 6 7 6 5 5 4 5 4 5 4 4 5 3 3 4 4 2 0 3 3 2 2 4 6 7 8 9 10 11 9 6 4 8 12 14 14 14 14 14 14 15 15 16 16 16 16 9
7 8 8 8 8 8 8 11 7 6 6 5 4 3 7 6 7 7 5 5 5 5 5 5 5 4 4 4 4 3 3 3 2 1 4 4 5 4 3 4 5 7 9 9 10 12 11 9 9 12 13 14 15 15 14 13 15 15 15 15 9 7
8 8 8 9 7 9 9 9 6 6 6 5 4 5 8 7 7 6 6 5 5 6 5 5 4 5 4 3 4 3 4 2 2 2 1 1 5 5 4 6 8 8 5 4 4 5 5 6 8 8 8 9 9 9 9 11 10 12 13 11 7 6
9 9 7 7 6 10 9 8 5 5 5 5 3 6 8 7 7 7 7 8 6 5 5 5 4 5 4 4 4 4 3 3 2 3 3 2 1 1 1 3 5 7 8 3 4 6 8 9 9 9 9 10 11 11 10 8 4 3 4 4 4 4
9 8 6 6 8 8 8 6 5 5 4 4 3 7 7 6 7 6 6 5 5 6 4 4 5 4 5 5 5 4 4 4 4 5 3 2 1 2 0 2 2 2 7 7 11 12 11 10 10 9 9 10 10 11 10 4 4 4 4 4 5 5
Wind_Direction
191 189 192 193 195 196 190 183 181 183 183 184 180 179 179 173 171 165 166 169 164 167 168 164 162 166 160 161 156 155 159 161 164 164 158 145 151 149 151 149 153 155 154 149 141 138 138 139 142 143 136 130 124 124 126 129 125 122 120 127 123 132
191 188 186 187 189 190 190 183 182 187 183 180 181 173 166 164 168 166 169 175 168 165 161 167 164 163 164 163 160 163 168 169 165 160 159 165 154 157 154 155 160 161 155 153 145 142 144 146 148 145 135 127 130 137 133 141 129 124 128 130 124 128
190 190 191 190 186 190 188 187 186 185 180 185 179 172 172 173 175 172 174 167 172 166 169 167 166 163 157 157 166 164 168 170 167 168 163 147 164 159 161 166 167 164 159 151 152 153 156 155 151 143 135 132 133 133 135 138 136 130 132 131 128 126
187 186 183 180 179 188 191 194 188 188 188 184 176 176 177 176 177 178 171 173 170 174 171 168 163 158 157 163 169 172 172 172 170 164 155 168 166 169 169 169 168 163 158 155 154 157 159 158 150 144 138 141 138 139 145 145 140 136 141 140 144 146
187 186 186 186 189 189 187 189 194 193 188 183 183 179 184 180 178 177 173 172 173 178 171 165 167 162 166 169 173 175 175 172 167 164 166 169 167 172 176 171 166 162 156 153 155 158 162 161 151 150 145 148 152 154 157 156 149 149 153 158 164 159
178 178 187 188 193 193 194 194 196 193 192 189 182 188 181 179 178 175 173 176 176 174 170 175 170 169 171 176 177 176 176 171 168 166 169 169 166 171 175 171 163 158 159 156 161 166 163 158 154 153 157 158 162 163 161 161 157 154 163 165 166 163
188 194 192 193 194 195 193 194 195 191 193 192 189 190 182 178 176 177 179 177 176 177 178 179 176 177 178 178 175 178 173 172 167 168 171 164 172 173 164 168 167 164 164 167 171 171 169 166 159 158 162 167 172 169 163 163 159 159 168 175 173 170
195 198 200 197 199 195 193 195 194 193 194 196 191 188 183 181 175 181 177 181 180 180 182 183 181 184 181 177 176 177 174 170 170 170 173 174 172 172 178 172 175 176 174 173 174 173 168 163 165 167 170 170 168 167 164 161 160 161 166 176 179 174
204 203 200 200 198 198 196 193 193 194 193 194 193 191 184 180 178 181 183 183 185 183 188 187 188 182 180 179 176 171 172 174 173 174 177 178 176 176 179 181 177 182 175 174 172 175 170 165 164 167 169 170 169 167 163 162 158 161 170 185 185 183
201 204 203 199 201 196 199 199 196 193 193 194 190 187 184 182 179 182 185 185 190 191 192 190 182 180 180 176 172 174 175 174 175 179 177 173 181 184 185 181 181 178 176 174 176 173 165 162 164 169 172 173 173 169 168 166 165 167 183 188 197 191
205 201 201 203 195 199 198 194 197 194 196 195 189 185 190 178 178 184 187 189 195 197 189 180 181 181 176 174 173 175 178 177 177 176 176 182 186 187 185 181 177 170 173 173 176 170 165 172 178 176 177 173 177 176 172 170 170 175 185 196 200 203
202 202 199 199 201 200 197 196 195 194 191 191 186 186 185 171 184 185 189 195 197 187 182 182 180 182 178 175 180 180 176 177 176 177 181 187 187 182 181 179 179 179 178 174 176 172 173 183 186 185 187 185 174 175 173 168 174 181 190 196 202 210
207 198 200 205 204 202 199 199 193 189 192 190 186 184 177 175 182 188 189 193 188 182 173 176 183 177 184 186 180 177 178 177 175 179 183 184 184 183 181 178 180 185 182 181 177 180 188 190 187 189 193 190 183 173 177 177 179 185 196 204 203 209
203 202 206 207 203 199 198 196 191 186 197 188 182 176 164 175 184 187 188 186 179 178 176 177 174 180 189 185 187 180 177 172 176 182 184 183 184 187 174 184 190 185 184 180 185 190 193 195 190 194 196 193 188 183 181 178 176 187 203 208 213 217
207 207 209 201 198 199 198 181 178 194 185 173 169 150 170 182 184 184 184 182 179 177 175 172 174 182 184 188 183 177 172 180 184 184 183 191 186 167 182 193 184 190 188 187 188 197 196 201 197 197 198 196 194 191 181 182 182 187 207 211 217 218
214 212 206 201 198 191 175 177 182 176 162 158 151 165 173 177 186 186 186 182 184 180 175 171 173 180 183 176 177 177 183 186 193 190 184 173 172 186 189 189 193 190 193 195 196 199 200 205 202 201 200 201 199 197 186 185 188 200 207 214 216 219
207 201 194 191 175 163 160 170 164 151 152 158 164 171 173 182 182 187 187 188 185 176 170 170 172 175 174 177 181 186 190 191 190 189 187 183 187 187 192 192 193 198 196 198 199 200 206 212 204 204 204 204 204 203 190 179 191 203 217 220 222 223
198 189 191 167 161 169 171 173 162 160 169 164 169 172 174 174 180 185 183 187 182 175 170 169 173 175 177 179 181 186 193 192 195 194 185 181 187 191 189 204 197 200 200 199 196 202 217 219 206 208 210 209 207 204 191 177 194 207 218 226 226 224
190 188 158 158 165 165 174 162 160 158 152 162 170 166 169 171 181 187 187 187 176 174 173 174 175 178 176 177 181 190 193 195 198 194 178 186 192 192 198 200 203 202 197 197 199 206 221 219 210 210 212 212 209 203 193 183 194 210 217 229 225 226
142 146 154 156 165 166 156 155 156 152 156 166 164 167 173 178 190 188 183 183 177 175 173 174 174 175 178 177 188 193 197 196 194 195 186 192 193 199 203 200 200 198 200 203 208 210 215 221 210 211 214 215 211 204 197 189 196 215 222 231 230 224
151 148 143 151 157 160 152 151 151 155 164 166 167 171 179 190 188 180 180 179 169 164 166 172 177 180 180 187 193 190 193 193 194 186 174 199 201 210 193 188 201 210 213 215 220 214 219 231 219 218 221 219 217 210 198 190 200 218 227 224 235 230
116 128 145 157 160 150 152 151 154 158 162 165 162 174 189 188 177 172 167 161 163 167 171 175 178 184 184 191 189 186 192 180 170 177 181 195 200 202 194 196 207 216 223 216 221 224 222 228 232 223 228 226 223 218 201 191 197 224 227 220 228 234
120 134 140 142 140 143 144 147 148 156 156 158 169 190 182 163 159 158 166 162 159 163 172 175 181 186 190 187 186 181 176 175 182 176 181 189 191 190 196 203 211 223 235 220 223 225 235 227 233 233 229 234 231 226 218 202 217 224 224 224 229 230
92 92 90 112 134 136 141 141 145 147 151 162 184 174 145 144 148 145 147 158 166 171 173 178 183 184 184 179 169 175 184 184 178 178 181 176 177 195 208 207 214 224 238 233 226 229 235 229 224 233 232 233 234 233 229 222 225 221 214 234 238 238
93 95 105 108 118 129 135 136 138 144 150 174 175 144 143 143 147 153 160 165 169 176 179 181 181 182 180 180 179 178 182 169 171 172 167 175 184 197 208 213 215 222 237 242 238 235 234 230 230 230 228 230 234 236 240 239 238 210 206 221 241 242
103 101 101 110 118 130 137 139 140 148 163 174 139 136 137 145 150 152 159 169 174 172 177 180 180 179 172 172 168 174 174 173 175 172 180 182 186 195 211 221 212 222 236 240 246 240 234 229 226 237 236 235 237 243 247 251 254 246 222 211 239 247
111 107 94 90 111 123 135 141 142 148 155 152 135 141 140 138 139 146 160 168 172 175 174 169 173 176 176 172 168 173 179 177 169 181 188 178 194 201 212 221 202 216 229 238 244 251 247 219 213 228 233 239 245 247 250 254 257 259 257 246 241 240
81 88 89 57 47 64 66 70 116 141 149 131 131 135 134 138 142 157 168 167 168 171 155 165 172 174 176 173 180 186 185 180 181 188 181 185 203 205 212 220 207 222 229 239 247 251 254 217 208 218 209 217 235 243 245 246 249 254 256 260 268 264
99 99 94 79 37 57 56 67 51 73 101 115 126 127 135 139 147 151 152 161 156 152 160 168 175 176 175 180 181 188 184 177 179 184 186 192 201 207 214 219 214 225 229 239 250 256 263 254 233 212 195 206 217 231 243 249 256 256 258 260 260 265
119 115 107 96 77 76 76 67 57 46 61 66 87 114 119 133 145 155 162 159 158 163 171 179 172 171 179 188 180 185 189 191 179 188 199 198 200 199 218 211 220 223 225 237 250 263 273 264 246 212 203 218 213 224 225 232 241 242 238 248 255 256
105 106 101 94 83 85 79 68 55 43 46 39 51 104 110 108 100 94 89 79 80 66 40 44 49 43 57 70 45 26 57 175 206 215 242 268 169 199 205 213 229 229 231 228 237 243 265 269 257 233 211 210 208 207 209 226 227 230 234 238 246 255
100 101 95 89 86 84 76 60 46 36 29 27 23 47 101 102 88 78 70 70 73 66 73 67 65 61 72 92 113 144 307 7 96 173 187 260 268 205 222 205 222 208 195 219 233 200 228 259 253 229 236 234 231 234 230 225 223 222 228 240 252 254
91 97 92 93 86 81 72 58 28 14 14 14 13 52 90 99 92 87 83 82 81 96 103 98 88 80 86 87 107 114 139 278 341 25 161 189 204 223 232 241 244 236 207 192 235 244 241 252 267 275 277 278 276 270 268 267 265 258 253 253 254 249
91 97 105 97 88 85 76 61 32 20 5 8 10 52 83 88 100 100 100 99 101 95 96 101 112 111 107 84 87 107 124 114 354 322 5 49 279 267 253 252 256 260 265 260 255 235 228 255 261 269 279 280 277 276 276 277 276 271 268 268 264 248
95 96 96 92 91 81 74 69 36 11 2 6 6 69 86 87 99 106 107 112 107 106 109 112 109 114 118 126 116 106 114 130 146 176 301 342 18 1 313 305 294 293 281 273 276 279 280 273 261 257 266 273 274 272 272 274 274 272 269 268 261 250
92 92 94 94 88 87 78 66 30 9 358 0 12 69 88 90 90 101 115 121 124 112 110 109 118 114 114 123 122 130 125 119 135 147 146 3 339 1 360 19 24 19 17 2 348 342 344 7 18 16 14 15 12 358 321 279 270 273 270 262 250 252
96 88 81 92 82 73 70 62 16 358 352 359 20 82 87 91 93 91 84 86 92 100 105 109 108 117 119 112 118 121 123 134 141 141 142 156 167 249 293 294 324 346 14 18 18 9 0 360 360 2 2 7 4 1 359 13 354 323 327 320 338 320
89 91 78 72 81 80 76 53 5 354 357 2 44 84 88 89 93 92 92 84 85 91 94 97 103 109 117 122 134 136 135 138 139 133 147 128 129 144 192 311 300 296 322 25 34 16 6 1 356 356 2 10 12 16 24 28 352 8 357 1 346 5